User: anonymous   Login
Location: Br�ttisellen
(47.4227°N, 8.6287°E)
Time: 17:39:04
(UTC+00:00)
Language:

Cosmos 2082 Rocket - Orbit

View from above orbital plane
View from above orbital plane
View from above satellite
View from above satellite

Ground track
Ground track

The orbit data is extracted from the following two-line orbital elements,

1 20625U 90046B   20185.41493902 -.00000312  00000-0 -13734-3 0  9991
2 20625  70.9997 334.6960 0015858 224.8029 135.1814 14.14655874555129
Epoch (UTC): 03 July 2020 09:57:30
Eccentricity: 0.0015858
inclination: 70.9997°
perigee height: 832 km
apogee height: 855 km
right ascension of ascending node: 334.6960°
argument of perigee: 224.8029°
revolutions per day: 14.14655874
mean anomaly at epoch: 135.1814°
orbit number at epoch: 55512

The dashed part of the orbit path shows where the satellite is in the earth's shadow,  

DLR